Location: Prague
(50.0833°N, 14.4667°E)
Time: 20:53:09
(UTC+02:00)

ISS - Pass Details

Date: 28 May 2024
Orbit: 410 x 421 km, 51.6° (Epoch: 12 June)

Event Time Altitude Azimuth Distance (km) Brightness Sun altitude
Rises 16:40:13 0° 253° (WSW) 2,374 1.0 38.5°
Reaches altitude 10° 16:42:19 10° 253° (WSW) 1,510 0.3 38.2°
Maximum altitude 16:45:43 90° 306° (NW) 429 -3.0 37.7°
Drops below altitude 10° 16:49:07 10° 75° (ENE) 1,511 -1.3 37.1°
Sets 16:51:13 0° 75° (ENE) 2,376 -0.4 36.8°
